Location: Bartlow
(52.0833°N, 0.3167°E)
Time: 19:09:22
(UTC+00:00)

Meteor 2-17 Rocket - Pass Details

Date: 24 April 2024
Orbit: 934 x 957 km, 82.5° (Epoch: 23 May)

Event Time Altitude Azimuth Distance (km) Brightness Sun altitude
Exits shadow 01:14:16 35° 155° (SSE) 1,473 5.1 -22.8°
Maximum altitude 01:16:40 58° 94° (E) 1,094 4.8 -22.7°
Drops below altitude 10° 01:22:38 10° 17° (NNE) 2,671 7.9 -22.3°
Sets 01:25:09 0° 14° (NNE) 3,617 8.9 -22.2°
